Hourly Weather Otradno-Kurnosovskiy

Today, 24 July, Saturday

Time Temperature Precipitation Wind Pressure Humidity
00:00 +20°C° 0 mm 3 mps 750 mmHg 51%
01:00 +19°C° 0 mm 3 mps 751 mmHg 52%
02:00 +19°C° 0 mm 3 mps 751 mmHg 53%
03:00 +18°C° 0 mm 2 mps 751 mmHg 55%
04:00 +19°C° 0 mm 2 mps 751 mmHg 55%
05:00 +19°C° 0 mm 2 mps 751 mmHg 55%
06:00 +19°C° 0 mm 2 mps 751 mmHg 55%
07:00 +21°C° 0 mm 2 mps 752 mmHg 49%
08:00 +25°C° 0 mm 2 mps 752 mmHg 43%
09:00 +26°C° 0 mm 2 mps 752 mmHg 39%
10:00 +27°C° 0 mm 3 mps 752 mmHg 36%
11:00 +28°C° 0 mm 3 mps 752 mmHg 33%
12:00 +29°C° 0 mm 3 mps 752 mmHg 30%
13:00 +30°C° 0 mm 3 mps 752 mmHg 29%
14:00 +30°C° 0 mm 3 mps 752 mmHg 29%
15:00 +31°C° 0 mm 3 mps 752 mmHg 28%
16:00 +30°C° 0 mm 3 mps 752 mmHg 29%
17:00 +30°C° 0 mm 3 mps 752 mmHg 29%
18:00 +30°C° 0 mm 3 mps 752 mmHg 30%
19:00 +28°C° 0 mm 3 mps 753 mmHg 36%
20:00 +26°C° 0 mm 4 mps 753 mmHg 42%
21:00 +23°C° 0 mm 4 mps 754 mmHg 47%
22:00 +24°C° 0 mm 3 mps 754 mmHg 51%
23:00 +22°C° 0 mm 3 mps 754 mmHg 54%

Tomorrow, 25 July, Sunday

Time Temperature Precipitation Wind Pressure Humidity
00:00 +21°C° 0 mm 3 mps 755 mmHg 58%
01:00 +21°C° 0 mm 2 mps 755 mmHg 59%
02:00 +20°C° 0 mm 2 mps 755 mmHg 60%
03:00 +20°C° 0 mm 2 mps 755 mmHg 61%
04:00 +20°C° 0 mm 2 mps 755 mmHg 62%
05:00 +20°C° 0 mm 2 mps 756 mmHg 63%
06:00 +20°C° 0 mm 2 mps 756 mmHg 64%
07:00 +23°C° 0 mm 2 mps 756 mmHg 57%
08:00 +25°C° 0 mm 2 mps 756 mmHg 51%
09:00 +27°C° 0 mm 2 mps 757 mmHg 44%
10:00 +28°C° 0 mm 2 mps 757 mmHg 40%
11:00 +30°C° 0 mm 2 mps 757 mmHg 36%
12:00 +31°C° 0 mm 2 mps 757 mmHg 32%
13:00 +31°C° 0 mm 2 mps 757 mmHg 31%
14:00 +31°C° 0 mm 2 mps 756 mmHg 29%
15:00 +32°C° 0 mm 2 mps 756 mmHg 28%
16:00 +33°C° 0 mm 3 mps 756 mmHg 29%
17:00 +31°C° 0 mm 3 mps 756 mmHg 29%
18:00 +32°C° 0 mm 4 mps 756 mmHg 30%
19:00 +29°C° 0 mm 4 mps 757 mmHg 32%
20:00 +27°C° 0 mm 4 mps 757 mmHg 35%
21:00 +25°C° 0 mm 3 mps 757 mmHg 38%
22:00 +24°C° 0 mm 3 mps 758 mmHg 40%
23:00 +24°C° 0 mm 3 mps 758 mmHg 42%

Day after tomorrow, 26 July, Monday

Time Temperature Precipitation Wind Pressure Humidity
00:00 +22°C° 0 mm 3 mps 758 mmHg 44%
01:00 +22°C° 0 mm 3 mps 758 mmHg 47%
02:00 +21°C° 0 mm 3 mps 758 mmHg 50%
03:00 +21°C° 0 mm 3 mps 758 mmHg 53%
04:00 +21°C° 0 mm 3 mps 758 mmHg 53%
05:00 +22°C° 0 mm 3 mps 758 mmHg 52%
06:00 +22°C° 0 mm 3 mps 758 mmHg 52%
07:00 +25°C° 0 mm 4 mps 758 mmHg 46%
08:00 +27°C° 0 mm 4 mps 758 mmHg 40%
09:00 +29°C° 0 mm 4 mps 758 mmHg 35%
10:00 +30°C° 0 mm 4 mps 758 mmHg 33%
11:00 +33°C° 0 mm 4 mps 758 mmHg 30%
12:00 +34°C° 0 mm 4 mps 758 mmHg 28%
13:00 +34°C° 0 mm 4 mps 758 mmHg 28%
14:00 +34°C° 0 mm 3 mps 757 mmHg 27%
15:00 +34°C° 0 mm 3 mps 757 mmHg 27%
16:00 +34°C° 0 mm 3 mps 757 mmHg 29%
17:00 +33°C° 0 mm 3 mps 757 mmHg 30%
18:00 +31°C° 0 mm 2 mps 757 mmHg 32%
19:00 +30°C° 0 mm 2 mps 757 mmHg 35%
20:00 +29°C° 0 mm 3 mps 757 mmHg 37%
21:00 +27°C° 0 mm 3 mps 757 mmHg 40%
22:00 +27°C° 0.1 mm 3 mps 758 mmHg 42%
23:00 +26°C° 0.1 mm 3 mps 758 mmHg 45%

27 July, Tuesday

Time Temperature Precipitation Wind Pressure Humidity
00:00 +25°C° 0.1 mm 3 mps 758 mmHg 47%
01:00 +24°C° 0.1 mm 3 mps 758 mmHg 49%
02:00 +24°C° 0.1 mm 2 mps 758 mmHg 50%
03:00 +23°C° 0.1 mm 2 mps 759 mmHg 52%
04:00 +23°C° 0 mm 2 mps 759 mmHg 52%
05:00 +22°C° 0 mm 3 mps 759 mmHg 53%
06:00 +22°C° 0 mm 3 mps 759 mmHg 53%
07:00 +22°C° 0.1 mm 3 mps 759 mmHg 51%
08:00 +23°C° 0.1 mm 4 mps 759 mmHg 49%
09:00 +25°C° 0.1 mm 4 mps 759 mmHg 47%
10:00 +26°C° 0 mm 3 mps 759 mmHg 44%
11:00 +27°C° 0 mm 3 mps 759 mmHg 41%
12:00 +28°C° 0 mm 2 mps 758 mmHg 39%
13:00 +29°C° 0 mm 2 mps 758 mmHg 36%
14:00 +30°C° 0 mm 2 mps 758 mmHg 34%
15:00 +31°C° 0 mm 2 mps 758 mmHg 31%
16:00 +31°C° 0 mm 2 mps 758 mmHg 31%
17:00 +31°C° 0 mm 1 mps 757 mmHg 31%
18:00 +31°C° 0 mm 1 mps 757 mmHg 32%
19:00 +29°C° 0 mm 1 mps 757 mmHg 34%
20:00 +27°C° 0 mm 2 mps 757 mmHg 37%
21:00 +26°C° 0 mm 2 mps 757 mmHg 40%
22:00 +25°C° 0 mm 2 mps 757 mmHg 39%
23:00 +25°C° 0 mm 3 mps 758 mmHg 37%

28 July, Wednesday

Time Temperature Precipitation Wind Pressure Humidity
00:00 +24°C° 0 mm 3 mps 758 mmHg 36%
01:00 +24°C° 0 mm 3 mps 758 mmHg 37%
02:00 +23°C° 0 mm 2 mps 757 mmHg 38%
03:00 +21°C° 0 mm 2 mps 757 mmHg 39%
04:00 +23°C° 0 mm 2 mps 757 mmHg 40%
05:00 +23°C° 0 mm 1 mps 757 mmHg 40%
06:00 +23°C° 0 mm 1 mps 757 mmHg 40%
07:00 +25°C° 0 mm 1 mps 757 mmHg 37%
08:00 +26°C° 0 mm 1 mps 757 mmHg 34%
09:00 +28°C° 0 mm 1 mps 757 mmHg 31%
10:00 +29°C° 0 mm 1 mps 757 mmHg 29%
11:00 +31°C° 0 mm 1 mps 757 mmHg 27%
12:00 +32°C° 0 mm 1 mps 757 mmHg 25%
13:00 +32°C° 0 mm 1 mps 756 mmHg 24%
14:00 +33°C° 0 mm 1 mps 756 mmHg 23%
15:00 +33°C° 0 mm 1 mps 756 mmHg 22%
16:00 +34°C° 0 mm 2 mps 755 mmHg 23%
17:00 +32°C° 0 mm 2 mps 755 mmHg 24%
18:00 +32°C° 0 mm 2 mps 755 mmHg 25%
19:00 +31°C° 0 mm 2 mps 755 mmHg 28%
20:00 +29°C° 0 mm 2 mps 755 mmHg 30%
21:00 +27°C° 0 mm 1 mps 755 mmHg 33%
22:00 +27°C° 0 mm 1 mps 755 mmHg 34%
23:00 +26°C° 0 mm 1 mps 755 mmHg 36%

29 July, Thursday

Time Temperature Precipitation Wind Pressure Humidity
00:00 +25°C° 0 mm 1 mps 755 mmHg 37%
01:00 +25°C° 0 mm 1 mps 754 mmHg 38%
02:00 +25°C° 0 mm 1 mps 754 mmHg 38%
03:00 +24°C° 0 mm 1 mps 754 mmHg 38%
04:00 +24°C° 0 mm 1 mps 754 mmHg 40%
05:00 +24°C° 0 mm 1 mps 754 mmHg 41%
06:00 +24°C° 0 mm 1 mps 754 mmHg 42%
07:00 +26°C° 0 mm 2 mps 754 mmHg 38%
08:00 +29°C° 0 mm 3 mps 754 mmHg 33%
09:00 +32°C° 0 mm 4 mps 754 mmHg 29%
10:00 +32°C° 0 mm 4 mps 754 mmHg 28%
11:00 +33°C° 0 mm 4 mps 754 mmHg 27%
12:00 +34°C° 0 mm 4 mps 753 mmHg 26%
13:00 +33°C° 0 mm 3 mps 753 mmHg 29%
14:00 +33°C° 0 mm 3 mps 753 mmHg 31%
15:00 +31°C° 0 mm 2 mps 753 mmHg 33%
16:00 +30°C° 0 mm 2 mps 753 mmHg 36%
17:00 +29°C° 0 mm 2 mps 752 mmHg 38%
18:00 +28°C° 0 mm 2 mps 752 mmHg 40%
19:00 +28°C° 0 mm 2 mps 752 mmHg 41%
20:00 +28°C° 0 mm 2 mps 752 mmHg 42%
21:00 +27°C° 0 mm 3 mps 752 mmHg 42%
22:00 +27°C° 0 mm 3 mps 751 mmHg 42%
23:00 +26°C° 0 mm 3 mps 751 mmHg 42%
Show more